Back to catalog

STARLINK-32893

AliveCommunicationsVLEO
NORAD 62897·PAYLOAD·🇺🇸 United States

Launched Feb 4, 2025 from Cape Canaveral Space Force Station

Loading…

Next Passes (next 24 hours)

TLE

FreshSource: CelesTrak SupGP

Epoch: Sep 14, 2026, 23:03 UTC

1 62897C 25024U   26257.96090278 -.00009378  00000+0 -33961-3 0  2578
2 62897  43.0019 336.1123 0001634 269.4955 193.3201 15.27588308    11

Track STARLINK-32893 in real time with AllMySat

Download on the App Store